[[{"header":{"parameterUnit":"m.s-1","parameterCategory":1,"la1":30.2991,"la2":30.254,"lo1":-89.0895,"lo2":-89.0444,"dy":0.0017,"dx":0.0017,"nx":28,"ny":28,"refTime":"2023-09-03T09:00:00:Z","depth":0,"parameterNumber":2,"parameterNumberName":"U-component_of_WINDS"},"data":[0,0,0,0,0,0,0,0,0,0,0,0,0,0,0,0,0,0,0,0,0,0,0,0,0,0,0,0,0,0,0,0,0,0,0,0,0,0,0,0,0,0,0,0,0,0,0,0,0,0,0,0,0,0,0,0,0,0,-5.3724,-5.3724,0,-5.3777,-5.3777,-5.3778,-5.3711,-5.3709,-5.3706,-5.3704,-5.3755,-5.3759,-5.3763,0,0,0,0,0,0,0,0,0,0,0,0,0,-5.3562,-5.3565,-5.3724,-5.3724,-5.3725,-5.3777,-5.3777,-5.3778,-5.3711,-5.3709,-5.3706,-5.3703,-5.3754,-5.3759,-5.3763,0,0,0,0,0,0,0,0,0,0,0,0,0,-5.3625,-5.3566,-5.3724,-5.3698,-5.3696,-5.3776,-5.3777,-5.3778,-5.3712,-5.3708,-5.3705,-5.3701,-5.3753,-5.3758,-5.3764,-5.387,0,0,-5.378,-5.3783,0,0,0,0,0,0,0,0,-5.3622,-5.3631,-5.3701,-5.37,-5.3698,-5.3734,-5.3739,-5.3809,-5.3713,-5.3706,-5.3704,-5.37,-5.3751,-5.3756,-5.3774,-5.3873,-5.3875,-5.3781,-5.3784,-5.3786,-5.3788,0,0,0,0,0,0,0,-5.3617,-5.3629,-5.3745,-5.3702,-5.3701,-5.3683,-5.3688,-5.3752,-5.3748,-5.3706,-5.3702,-5.3709,-5.3749,-5.3769,-5.3775,-5.3876,-5.3781,-5.3785,-5.3789,-5.3791,-5.4062,-5.4065,0,0,0,0,0,0,-5.3616,-5.3625,-5.3743,-5.3746,-5.365,-5.3689,-5.3694,-5.3726,-5.3747,-5.3747,-5.3712,-5.3706,-5.3762,-5.3769,-5.3776,-5.39,-5.3786,-5.3791,-5.3795,-5.4058,-5.4062,-5.4067,0,0,0,0,0,0,-5.3613,-5.3628,-5.3741,-5.3685,-5.3698,-5.3696,-5.3731,-5.3729,-5.3748,-5.3752,-5.375,-5.3733,-5.3759,-5.3769,-5.3847,-5.3901,-5.3794,-5.3799,-5.4053,-5.4059,-5.4065,-5.415,0,0,0,0,0,0,-5.3609,-5.3627,-5.3668,-5.3686,-5.3701,-5.3812,-5.3735,-5.3733,-5.3758,-5.375,-5.3771,-5.3771,-5.3757,-5.3839,-5.3852,-5.3906,-5.3803,-5.4048,-5.4056,-5.4063,-5.4142,-5.4158,-5.4171,0,0,0,0,0,-5.3603,-5.369,-5.3671,-5.3685,-5.3753,-5.3815,-5.3823,-5.3806,-5.3763,-5.3803,-5.3806,-5.377,-5.3894,-5.3848,-5.3862,-5.3919,-5.4045,-5.4054,-5.4062,-5.4136,-5.4155,-5.4171,0,0,0,0,0,0,-5.3678,-5.3692,-5.367,-5.3766,-5.379,-5.3803,-5.3854,-5.3827,-5.3863,-5.3854,-5.3831,-5.3836,-5.3919,-5.3927,-5.3876,-5.4022,-5.3962,-5.3974,-5.4013,-5.4031,-5.4046,-5.404,-5.3808,0,0,0,0,0,-5.3706,-5.3756,-5.3765,-5.3848,-5.3862,-5.3856,-5.3883,-5.3868,-5.3891,-5.39,-5.3908,-5.3931,-5.3975,-5.4004,-5.4045,-5.4144,-5.4146,-5.419,-5.4205,-5.4217,-5.4226,-5.4277,-5.4295,-5.4096,-5.4095,-5.4095,0,0,-5.3763,-5.3777,-5.381,-5.3864,-5.388,-5.3931,-5.3865,-5.3922,-5.3959,-5.3909,-5.3982,-5.3989,-5.4013,-5.4102,-5.4141,-5.4111,-5.4283,-5.4228,-5.4238,-5.4241,-5.4288,-5.4306,-5.4323,-5.4102,-5.41,-5.41,0,0,-5.3892,-5.391,-5.3979,-5.3997,-5.4024,-5.4019,-5.4036,-5.4054,-5.4057,-5.4131,-5.4093,-5.4137,-5.4214,-5.4232,-5.4251,-5.4388,-5.4355,-5.4402,-5.4477,-5.4526,-5.4541,-5.4555,-5.46,-5.4617,-5.4412,-5.4412,-5.4412,0,-5.3959,-5.4035,-5.4018,-5.4077,-5.4101,-5.4059,-5.4128,-5.4147,-5.4185,-5.4201,-5.4168,-5.4262,-5.4276,-5.4366,-5.44,-5.4418,-5.4435,-5.4397,-5.4541,-5.4555,-5.4567,-5.461,-5.4627,-5.4417,-5.4417,-5.4416,-5.4416,0,-5.4115,-5.4169,-5.4222,-5.4259,-5.429,-5.4354,-5.4345,-5.4377,-5.436,-5.4359,-5.4434,-5.4449,-5.4491,-5.4512,-5.4496,-5.46,-5.458,-5.4545,-5.4483,-5.4592,-5.4631,-5.4648,-5.4425,-5.4423,-5.4421,-5.442,0,0,-5.4291,-5.4318,-5.4338,-5.4353,-5.4379,-5.442,-5.4482,-5.4523,-5.455,-5.4579,-5.4627,-5.4694,-5.466,-5.4682,-5.4668,-5.4712,-5.4815,-5.467,-5.467,-5.4693,-5.4927,-5.4951,-5.497,-5.4795,-5.4799,-5.4801,-5.4923,0,-5.4417,-5.4524,-5.451,-5.4612,-5.466,-5.4621,-5.4674,-5.4695,-5.4697,-5.4736,-5.4737,-5.4783,-5.4737,-5.475,-5.4792,-5.4794,-5.4861,-5.4785,-5.4838,-5.484,-5.4829,-5.4991,-5.5017,-5.5132,-5.4939,-5.4942,-5.4944,0,-5.4579,-5.4612,-5.4719,-5.4736,-5.4756,-5.4804,-5.484,-5.4879,-5.4902,-5.4899,-5.4924,-5.4902,-5.4962,-5.4903,-5.4984,-5.4932,-5.4954,-5.4958,-5.4962,-5.4963,-5.4896,-5.4993,-5.5169,-5.5184,-5.4969,-5.4967,-5.4965,0,-5.4691,-5.4764,-5.4836,-5.4852,-5.4874,-5.4909,-5.492,-5.4939,-5.4964,-5.4996,-5.5011,-5.505,-5.507,-5.51,-5.5088,-5.5046,-5.517,-5.511,-5.5167,-5.5167,-5.5192,-5.519,-5.5369,-5.5213,-5.5212,-5.5212,-5.5212,0,-5.4832,-5.4898,-5.4887,-5.4931,-5.5003,-5.4987,-5.5058,-5.5064,-5.5082,-5.5125,-5.5095,-5.5136,-5.512,-5.516,-5.5151,-5.5218,-5.5228,-5.5226,-5.5222,-5.5227,-5.5226,-5.5237,-5.5227,-5.5217,-5.5216,-5.5215,-5.5214,0,-5.4968,-5.4964,-5.504,-5.5056,-5.5061,-5.5113,-5.5125,-5.5166,-5.5165,-5.5221,-5.5233,-5.5231,-5.5276,-5.5268,-5.5319,-5.5313,-5.5395,-5.5383,-5.5387,-5.5383,-5.5439,-5.5432,-5.5628,-5.5652,-5.5484,-5.5485,-5.5487,0,-5.5057,-5.5106,-5.5127,-5.5154,-5.5168,-5.5212,-5.5238,-5.5224,-5.5251,-5.528,-5.5317,-5.536,-5.5393,-5.5467,-5.5469,-5.5507,-5.5494,-5.556,-5.5499,-5.5501,-5.549,-5.5486,-5.5489,-5.5571,-5.5573,-5.5574,-5.5576,0,-5.5212,-5.5208,-5.5246,-5.5284,-5.5315,-5.5344,-5.5369,-5.5393,-5.5381,-5.5414,-5.546,-5.5486,-5.5537,-5.5578,-5.5614,-5.5624,-5.5597,-5.5595,-5.561,-5.5613,-5.5611,-5.5609,-5.5416,-5.559,-5.5589,-5.5587,-5.5587,-5.5586,-5.5325,-5.5366,-5.5387,-5.543,-5.5448,-5.5472,-5.551,-5.5515,-5.5553,-5.5593,-5.5583,-5.5634,-5.5655,-5.5699,-5.5713,-5.5752,-5.5727,-5.5749,-5.5754,-5.5759,-5.5764,-5.5609,-5.5759,-5.5759,-5.5758,-5.5758,-5.5758,0,-5.5476,-5.5487,-5.5527,-5.5564,-5.5597,-5.5572,-5.5598,-5.5627,-5.5673,-5.5695,-5.5728,-5.578,-5.582,-5.5827,-5.5864,-5.5894,-5.5883,-5.5904,-5.59,-5.5902,-5.5786,-5.5767,-5.5913,-5.5913,-5.5913,-5.5913,-5.5913,-5.5913,-5.5558,-5.5625,-5.5623,-5.5698,-5.5709,-5.5759,-5.5777,-5.5798,-5.5815,-5.5874,-5.5908,-5.5912,-5.5927,-5.5965,-5.6001,-5.6001,-5.6015,-5.604,-5.6036,-5.5926,-5.5911,-5.5896,-5.5878,-5.6045,-5.6045,-5.6149,-5.615,-5.615]},{"header":{"parameterUnit":"m.s-1","parameterCategory":1,"la1":30.2991,"la2":30.254,"lo1":-89.0895,"lo2":-89.0444,"dy":0.0017,"dx":0.0017,"nx":28,"ny":28,"refTime":"2023-09-03T09:00:00:Z","depth":0,"parameterNumber":3,"parameterNumberName":"V-component_of_WINDS"},"data":[0,0,0,0,0,0,0,0,0,0,0,0,0,0,0,0,0,0,0,0,0,0,0,0,0,0,0,0,0,0,0,0,0,0,0,0,0,0,0,0,0,0,0,0,0,0,0,0,0,0,0,0,0,0,0,0,0,0,3.6666,3.6667,0,3.6726,3.6727,3.6727,3.6663,3.6661,3.6658,3.6656,3.6716,3.6719,3.6723,0,0,0,0,0,0,0,0,0,0,0,0,0,3.6494,3.6498,3.6666,3.6667,3.6667,3.6726,3.6727,3.6728,3.6664,3.6661,3.6658,3.6655,3.6714,3.6719,3.6724,0,0,0,0,0,0,0,0,0,0,0,0,0,3.6563,3.6499,3.6666,3.6643,3.6641,3.6726,3.6727,3.6728,3.6664,3.6661,3.6657,3.6653,3.6713,3.6719,3.6724,3.6834,0,0,3.6742,3.6745,0,0,0,0,0,0,0,0,3.6559,3.6569,3.6645,3.6644,3.6643,3.6683,3.6688,3.6763,3.6665,3.6655,3.6656,3.6652,3.6708,3.6714,3.6733,3.6837,3.6839,3.6743,3.6746,3.6749,3.675,0,0,0,0,0,0,0,3.6554,3.6566,3.6689,3.6646,3.6645,3.6629,3.6634,3.6702,3.6702,3.6656,3.6652,3.666,3.6706,3.6728,3.6734,3.684,3.6742,3.6748,3.6751,3.6753,3.7036,3.704,0,0,0,0,0,0,3.6552,3.6563,3.6688,3.6691,3.6591,3.6635,3.6641,3.6674,3.6701,3.6701,3.6663,3.6656,3.672,3.6727,3.6736,3.6865,3.6749,3.6754,3.6757,3.7032,3.7037,3.7042,0,0,0,0,0,0,3.6549,3.6564,3.6685,3.6626,3.664,3.6642,3.6679,3.6677,3.6698,3.6706,3.6705,3.6685,3.6717,3.6728,3.681,3.6866,3.6757,3.6762,3.7028,3.7034,3.7039,3.7125,0,0,0,0,0,0,3.6544,3.6563,3.6605,3.6627,3.6643,3.6759,3.6683,3.6681,3.6709,3.6701,3.6726,3.6727,3.6715,3.6802,3.6816,3.6872,3.6767,3.7023,3.703,3.7038,3.7118,3.7134,3.7147,0,0,0,0,0,3.6538,3.6627,3.6608,3.6623,3.6696,3.6762,3.6772,3.6757,3.6714,3.6755,3.676,3.6726,3.6859,3.6811,3.6826,3.6885,3.7019,3.7028,3.7037,3.7111,3.713,3.7147,0,0,0,0,0,0,3.6611,3.6629,3.6608,3.6707,3.6734,3.6752,3.6804,3.6778,3.6817,3.6808,3.6788,3.6794,3.6881,3.6892,3.6838,3.6993,3.6931,3.6944,3.6982,3.7001,3.7016,3.7011,3.6771,0,0,0,0,0,3.6639,3.6691,3.6704,3.679,3.6805,3.6802,3.6831,3.6817,3.6844,3.6855,3.6865,3.6892,3.6939,3.6971,3.7015,3.7119,3.7123,3.7168,3.7183,3.7195,3.7205,3.726,3.728,3.7071,3.7071,3.7071,0,0,3.6696,3.6712,3.6747,3.6805,3.6824,3.6879,3.6812,3.6873,3.6913,3.6863,3.6942,3.6951,3.6979,3.7073,3.7115,3.7084,3.7264,3.7206,3.7216,3.722,3.7272,3.7291,3.7309,3.7077,3.7076,3.7075,0,0,3.6827,3.6846,3.6919,3.6939,3.697,3.6968,3.6985,3.7007,3.7012,3.709,3.7054,3.7102,3.7184,3.7206,3.7227,3.7368,3.7338,3.7383,3.7461,3.7515,3.7531,3.7545,3.7594,3.7612,3.7394,3.7395,3.7395,0,3.6894,3.6975,3.6959,3.7022,3.7049,3.7008,3.7081,3.7102,3.7145,3.7164,3.7129,3.7232,3.7248,3.7346,3.738,3.74,3.7419,3.7379,3.753,3.7544,3.7558,3.7604,3.7623,3.74,3.7399,3.7399,3.7398,0,3.7055,3.7112,3.7168,3.7211,3.7243,3.7311,3.7305,3.734,3.7324,3.7326,3.7406,3.7424,3.7471,3.7494,3.7479,3.7589,3.7569,3.7533,3.7471,3.7583,3.7626,3.7644,3.7407,3.7405,3.7404,3.7403,0,0,3.7233,3.7267,3.7287,3.7306,3.7337,3.738,3.7446,3.7493,3.7523,3.7554,3.7608,3.768,3.7646,3.7671,3.7658,3.7706,3.7815,3.7663,3.7664,3.769,3.7937,3.7963,3.7984,3.7795,3.7799,3.7802,3.7934,0,3.7364,3.7479,3.7467,3.7576,3.7627,3.759,3.7647,3.7672,3.7676,3.772,3.7723,3.7774,3.7727,3.7741,3.7787,3.7792,3.7864,3.7782,3.7844,3.7847,3.7837,3.8006,3.8034,3.8158,3.7951,3.7954,3.7956,0,3.7532,3.757,3.7684,3.7707,3.7728,3.778,3.7821,3.7865,3.7892,3.7891,3.7919,3.7898,3.7964,3.7902,3.7992,3.7937,3.7962,3.7968,3.7973,3.7976,3.7907,3.8013,3.8197,3.8215,3.7982,3.798,3.7978,0,3.7649,3.7728,3.7807,3.7824,3.7853,3.789,3.7903,3.7927,3.7956,3.7992,3.801,3.8054,3.8078,3.8112,3.8103,3.8059,3.8195,3.8132,3.8195,3.8195,3.8223,3.8221,3.8412,3.8243,3.8242,3.8242,3.8241,0,3.7796,3.7867,3.7859,3.7907,3.7986,3.7971,3.8049,3.8058,3.8079,3.8128,3.8099,3.8145,3.8131,3.8177,3.817,3.8245,3.8256,3.8257,3.8254,3.8258,3.8258,3.8273,3.8264,3.8247,3.8246,3.8245,3.8244,0,3.7938,3.7936,3.8019,3.804,3.8046,3.8103,3.812,3.8165,3.8167,3.8229,3.8243,3.8245,3.8297,3.8292,3.8351,3.8346,3.8438,3.8426,3.8429,3.8426,3.8488,3.8482,3.8694,3.8721,3.8535,3.8537,3.8539,0,3.8031,3.8085,3.8112,3.8142,3.8158,3.8209,3.8238,3.8226,3.8257,3.8293,3.8333,3.8383,3.8422,3.8507,3.8513,3.8558,3.8545,3.8617,3.8552,3.8555,3.8545,3.8541,3.8546,3.8629,3.8631,3.8633,3.8634,0,3.8197,3.8193,3.8236,3.828,3.8316,3.835,3.838,3.8407,3.8398,3.8435,3.8488,3.8518,3.8578,3.8627,3.867,3.8683,3.8657,3.8655,3.8671,3.8676,3.8675,3.8675,3.8463,3.865,3.8648,3.8647,3.8646,3.8645,3.8316,3.8362,3.8388,3.8437,3.8459,3.8488,3.8531,3.8539,3.8583,3.8631,3.8621,3.8681,3.8706,3.8761,3.8778,3.8824,3.8798,3.8823,3.8829,3.8835,3.8841,3.8669,3.8832,3.8832,3.8831,3.8831,3.8831,0,3.8479,3.8494,3.8539,3.8583,3.8622,3.8595,3.8627,3.8661,3.8714,3.8741,3.878,3.8841,3.8889,3.89,3.8945,3.898,3.8969,3.8992,3.8989,3.8992,3.8862,3.8843,3.9,3.9,3.9,3.9,3.9,3.9,3.8568,3.8644,3.8643,3.8729,3.8744,3.8802,3.8823,3.8849,3.887,3.894,3.8979,3.8986,3.9006,3.9053,3.9096,3.9098,3.9115,3.9143,3.914,3.9018,3.9001,3.8985,3.8966,3.9147,3.9147,3.9265,3.9266,3.9267]}]]